カタログに戻る

CZ-6A DEB

運用中PO
NORAD 60797·DEBRIS·🇨🇳 China

打ち上げ Aug 6, 2024 から Taiyuan Satellite Launch Center

Loading…

次のパス (今後24時間)

TLE

最新Source: Space-Track

元期: Sep 14, 2026, 22:55 UTC

1 60797U 24140FY  26257.95492262  .00001099  00000-0  30101-3 0  9998
2 60797  88.8548 247.8621 0099658 280.1537  78.8437 14.43632653110089

AllMySatでCZ-6A DEBをリアルタイム追跡

Download on the App Store